Tracking 29892 objects as of 21-Nov-2024
HD Live streaming from Space Station
objects crossing your sky now

STARLINK-6105

Track STARLINK-6105 now!
10-day predictions
STARLINK-6105 is classified as:


NORAD ID: 56118
Int'l Code: 2023-046AB
Perigee: 565.3 km
Apogee: 567.1 km
Inclination: 43.0 °
Period: 95.8 minutes
Semi major axis: 6937 km
RCS: Unknown
Launch date: March 29, 2023
Source: United States (US)
Launch site: AIR FORCE EASTERN TEST RANGE (AFETR)
Your satellite tracking list
Your tracking list is empty




NASA's NSSDC Master Catalog

Two Line Element Set (TLE):
1 56118U 23046AB  24325.94675569 -.00000434  00000-0 -17070-4 0  9995
2 56118  43.0042 212.7168 0001294 271.1236  88.9458 15.02537259 91349
Source of the keplerian elements: AFSPC